Weather History for Houghton, MI

Change the Weather History Date:

Friday, March 1, 2013

  Actual Average Record
Temperature  
Mean Temperature 16 °F -  
Max Temperature 21 °F 28 °F 46 °F (1990)
Min Temperature 12 °F 13 °F -14 °F (1962)
Degree Days  
Heating Degree Days 48    
Moisture  
Dew Point 8 °F    
Average Humidity 69    
Maximum Humidity 79    
Minimum Humidity 57    
Precipitation  
Precipitation 0.00 in - - ()
Sea Level Pressure  
Sea Level Pressure 30.37 in    
Wind  
Wind Speed 10 mph (NNE)    
Max Wind Speed 14 mph    
Max Gust Speed 18 mph    
Visibility 10 miles    
Events Snow    
Averages and records for this station are not official NWS values.
T = Trace of Precipitation, MM = Missing Value Source: NWS Daily Summary

Daily Weather History Graph

Daily Weather History Graph

Search for Another Location

Airport:

Trip Planner

Search our weather history database for the weather conditions in past years. The results will help you decide how hot, cold, wet, or windy it might be!

Date:

Astronomy

Mar. 01, 2013 Rise Set
Actual Time 7:33 AM EST 6:39 PM EST
Civil Twilight 7:02 AM EST 7:10 PM EST
Nautical Twilight 6:27 AM EST 7:45 PM EST
Astronomical Twilight 5:52 AM EST 8:21 PM EST
Moon 11:35 PM EST (3/1) 9:00 AM EST (3/1)
Length of Visible Light 12h 07m
Length of Day
11h 06m
Waning Gibbous, 83% of the Moon is Illuminated
Mar 1
Waning Gibbous
Mar 4
Last Quarter
Mar 11
New
Mar 19
First Quarter
Mar 27
Full

Hourly Weather History & Observations

Time (EST) Temp. Windchill Dew Point Humidity Pressure Visibility Wind Dir Wind Speed Gust Speed Precip Events Conditions
12:53 AM 18.0 °F 5.4 °F 10.9 °F 74% 30.31 in 10.0 mi NE 11.5 mph - N/A   Mostly Cloudy
1:53 AM 18.0 °F 6.9 °F 10.9 °F 74% 30.32 in 10.0 mi NE 9.2 mph - N/A   Overcast
2:53 AM 17.6 °F 7.3 °F 12.2 °F 79% 30.27 in 10.0 mi ENE 8.1 mph - N/A   Overcast
3:53 AM 17.1 °F 5.0 °F 10.9 °F 77% 30.34 in 10.0 mi NE 10.4 mph - N/A   Overcast
5:53 AM 16.0 °F 2.9 °F 10.0 °F 77% 30.37 in 9.0 mi NNE 11.5 mph - 0.00 in Snow Light Snow
6:53 AM 15.1 °F 2.5 °F 9.0 °F 77% 30.38 in 9.0 mi NE 10.4 mph - 0.00 in   Overcast
7:53 AM 15.1 °F 2.5 °F 9.0 °F 77% 30.40 in 9.0 mi NE 10.4 mph - 0.00 in Snow Light Snow
8:53 AM 15.1 °F 5.2 °F 8.1 °F 74% 30.40 in 10.0 mi NE 6.9 mph - N/A   Mostly Cloudy
9:09 AM 15.8 °F 5.1 °F 8.6 °F 73% 30.34 in 10.0 mi NE 8.1 mph - N/A   Scattered Clouds
9:53 AM 17.1 °F 5.0 °F 8.1 °F 68% 30.40 in 10.0 mi NE 10.4 mph - N/A   Partly Cloudy
10:53 AM 19.0 °F 6.8 °F 7.0 °F 59% 30.41 in 10.0 mi NE 11.5 mph - N/A   Clear
11:53 AM 19.9 °F 8.6 °F 7.0 °F 57% 30.42 in 10.0 mi NNE 10.4 mph - N/A   Clear
12:53 PM 19.4 °F 6.6 °F 8.6 °F 63% 30.35 in 10.0 mi NNE 12.7 mph - N/A   Clear
1:53 PM 21.0 °F 11.4 °F 9.0 °F 60% 30.40 in 10.0 mi North 8.1 mph 17.3 mph N/A   Clear
2:53 PM 19.9 °F 9.3 °F 8.1 °F 60% 30.40 in 10.0 mi North 9.2 mph 18.4 mph N/A   Clear
3:53 PM 19.0 °F 6.8 °F 8.1 °F 62% 30.40 in 10.0 mi North 11.5 mph - N/A   Clear
4:53 PM 18.0 °F 4.2 °F 7.0 °F 62% 30.40 in 10.0 mi NNE 13.8 mph - N/A   Clear
5:53 PM 18.0 °F 4.8 °F 7.0 °F 62% 30.41 in 10.0 mi NNE 12.7 mph - N/A   Clear
6:53 PM 16.0 °F 6.3 °F 6.1 °F 65% 30.41 in 10.0 mi NNE 6.9 mph - N/A   Clear
7:53 PM 12.0 °F 4.1 °F 3.9 °F 70% 30.40 in 10.0 mi NNW 4.6 mph - N/A   Clear
8:53 PM 14.0 °F 5.1 °F 6.8 °F 73% 30.33 in 10.0 mi North 5.8 mph - N/A   Clear
9:53 PM 15.1 °F 6.4 °F 7.0 °F 70% 30.39 in 10.0 mi NNE 5.8 mph - N/A   Clear
10:53 PM 12.9 °F - 6.1 °F 74% 30.37 in 10.0 mi Calm Calm - N/A   Clear
11:53 PM 12.9 °F 5.2 °F 5.0 °F 71% 30.37 in 10.0 mi North 4.6 mph - N/A   Clear